Temperature
18 16 16 17 17 18 18 18 18 18 19 18 18 18 19 20 19 19 20 20 21 22 22 21 21 20 20 19 19 18 18 17 17 16 16 15 15 14 14 14 13 13 13 13
16 17 18 18 18 18 18 18 18 18 19 19 18 18 19 19 19 20 20 21 21 22 22 21 21 20 20 20 19 19 18 17 17 16 16 15 15 14 14 14 13 13 13 13
17 18 19 19 18 18 18 18 18 18 19 19 19 19 19 19 20 20 21 21 21 22 22 22 21 21 20 20 19 19 18 17 17 16 16 15 15 14 14 14 13 13 13 13
18 18 19 19 19 18 18 19 19 19 18 17 18 18 19 18 18 19 20 21 21 22 22 22 21 21 21 20 19 19 18 17 17 16 16 15 15 14 14 14 13 13 13 13
18 18 19 19 19 19 18 19 19 18 18 17 17 18 18 17 20 19 19 21 21 22 22 22 22 21 21 20 19 19 18 17 17 16 16 15 15 14 14 14 13 13 13 13
19 19 19 19 20 19 19 18 17 16 16 17 18 18 18 17 19 19 19 21 22 22 22 22 22 21 21 20 19 19 18 17 17 16 16 15 15 14 14 14 14 13 13 13
19 20 20 20 20 19 18 17 16 17 16 17 17 18 18 19 19 18 19 21 22 22 22 22 21 21 21 20 19 19 18 18 17 16 16 15 15 15 14 14 14 13 13 13
19 19 20 20 20 19 18 18 17 18 17 17 17 18 18 19 19 20 20 21 22 22 22 22 22 21 21 20 20 19 18 18 17 17 16 16 15 15 14 14 14 14 13 13
19 19 21 21 20 19 18 17 17 16 17 16 17 17 18 19 19 19 20 20 21 21 21 22 22 21 21 20 20 19 19 18 17 17 16 16 15 15 14 14 14 14 13 13
19 20 20 21 21 19 19 16 15 16 17 17 18 17 17 19 18 17 17 19 20 21 21 21 21 21 21 20 20 19 18 18 17 17 16 16 15 15 15 14 14 14 14 13
19 19 20 20 21 20 19 17 15 14 15 16 17 17 17 17 17 17 17 18 19 20 21 21 21 21 20 20 19 19 18 18 17 17 16 16 16 15 15 14 14 14 14 14
17 16 17 19 20 19 20 18 16 17 16 15 15 16 17 16 16 16 17 18 19 19 20 20 20 20 20 20 19 19 18 18 17 17 16 16 16 15 15 15 14 14 14 14
18 17 17 18 18 19 19 18 16 15 14 14 15 17 17 16 16 17 17 17 18 19 19 19 19 19 19 19 19 19 18 18 17 17 17 16 16 15 15 15 14 14 14 14
17 16 17 18 18 19 19 19 17 16 15 15 15 16 16 16 15 16 16 17 17 18 18 19 19 19 19 19 19 18 18 18 17 17 17 16 16 16 15 15 15 14 14 14
16 17 18 18 18 18 19 19 18 17 16 16 16 16 15 15 14 15 16 16 17 17 18 18 18 18 18 18 18 18 18 18 17 17 17 17 16 16 15 15 15 14 14 14
14 17 18 18 18 18 18 18 17 17 16 16 15 15 15 15 15 15 15 16 16 16 17 17 17 18 18 18 18 18 18 18 17 17 17 17 16 16 16 15 15 15 14 14
14 16 16 16 16 18 17 17 17 16 15 15 15 15 14 14 14 14 15 15 15 16 16 17 17 17 17 17 17 18 18 18 17 17 17 16 16 16 16 15 15 15 15 14
14 13 13 14 17 18 16 16 16 15 14 14 15 14 14 15 15 15 15 15 15 16 16 16 17 17 17 17 17 17 17 17 17 17 16 16 16 16 16 15 15 15 15 14
12 13 12 13 15 16 16 16 15 15 15 14 14 14 15 15 15 15 15 15 15 15 15 15 16 16 16 16 17 17 17 16 16 16 16 16 16 16 16 15 15 15 15 15
11 12 12 12 16 16 16 16 16 15 14 14 14 14 14 14 12 13 14 14 15 15 15 15 15 15 16 16 16 16 16 16 16 16 16 16 16 16 15 15 15 15 15 15
13 12 12 12 14 14 14 14 15 15 14 14 14 14 14 13 12 14 14 14 14 14 14 15 15 15 15 15 15 15 15 15 15 15 15 15 15 15 15 15 15 15 15 15
13 12 12 11 13 14 14 14 13 13 14 14 14 14 14 14 13 13 14 14 14 14 14 14 14 14 14 14 14 14 14 14 15 15 15 15 15 15 15 15 15 15 15 14
11 12 11 11 12 13 13 13 14 14 14 14 14 14 14 13 13 13 13 13 13 13 13 13 13 13 13 13 13 13 14 14 14 14 14 15 14 14 14 14 14 14 14 14
11 10 10 10 11 12 13 13 14 14 14 14 13 13 13 13 13 12 12 12 12 12 12 12 12 12 12 13 13 13 13 13 13 14 14 14 14 14 14 14 14 14 14 14
10 11 10 10 10 12 13 13 13 13 13 13 13 13 12 12 12 12 11 11 11 11 11 11 11 11 11 12 12 12 12 12 12 13 13 13 13 13 13 13 14 14 14 13
8 10 10 10 12 11 12 13 13 13 13 12 12 12 12 11 11 11 11 10 10 10 10 10 10 10 10 11 11 11 11 11 11 12 12 12 12 13 13 13 13 13 13 13
Wind_Speed
3 5 4 6 5 4 4 3 2 3 1 2 6 9 11 6 5 7 8 8 10 11 9 6 7 7 7 7 7 7 7 5 4 3 2 2 0 1 1 2 2 3 3 3
5 2 4 5 4 4 3 1 1 3 0 2 5 8 8 5 5 7 8 9 9 8 6 6 7 8 8 9 8 8 7 7 5 3 2 2 2 1 1 2 2 3 3 3
5 4 4 5 4 3 0 2 2 1 3 2 4 8 6 5 4 3 4 5 6 9 10 9 8 9 8 9 10 9 8 7 6 4 3 3 2 2 2 2 2 3 3 3
2 2 4 4 3 4 2 3 3 0 2 3 4 3 7 6 7 4 3 3 6 7 8 8 9 10 11 10 9 8 8 7 6 5 4 4 3 2 2 2 2 3 3 3
1 4 4 3 3 5 3 1 3 2 2 3 4 2 8 6 6 7 6 5 6 6 7 9 10 11 9 8 8 8 7 7 6 5 6 5 3 2 1 1 2 3 3 3
1 2 3 3 1 4 3 5 5 5 4 4 4 2 5 4 6 8 7 6 5 5 5 6 6 6 6 7 7 7 8 7 6 6 5 6 5 4 2 1 2 2 3 3
4 2 1 2 3 3 5 5 5 6 6 3 4 1 5 6 6 6 8 8 5 3 3 5 7 8 8 9 8 8 8 7 7 6 6 6 6 5 4 3 3 2 2 2
3 2 2 2 4 4 3 6 6 3 1 4 5 2 5 6 7 6 5 5 4 3 3 5 7 8 8 9 8 9 9 8 7 7 7 5 5 4 4 4 3 3 3 4
4 2 3 1 2 7 5 3 5 6 2 2 5 6 8 8 10 10 9 8 7 5 4 4 5 6 7 8 9 9 9 8 8 8 7 6 6 5 5 4 3 3 3 3
5 2 4 2 5 5 4 7 6 5 3 1 5 5 5 9 10 10 10 9 8 7 5 3 3 5 6 7 7 7 8 8 7 7 7 6 6 6 5 4 4 4 4 3
3 4 4 4 2 1 4 5 6 5 5 5 0 5 4 5 7 7 8 9 8 7 5 4 3 3 3 4 5 6 7 6 6 7 7 6 6 6 5 5 5 4 4 3
3 5 1 3 3 0 2 4 5 4 2 4 3 5 4 4 6 6 7 9 8 7 5 4 3 2 1 2 4 6 6 6 7 7 6 7 6 5 5 6 6 5 4 4
4 5 4 6 6 5 4 3 4 6 5 4 4 5 4 7 8 8 8 9 9 8 7 6 5 3 2 2 3 5 6 7 6 6 7 6 6 6 7 7 6 5 4 4
4 5 5 6 5 2 2 2 4 5 4 3 5 4 7 10 10 10 10 9 8 8 8 8 6 5 4 3 3 4 5 6 6 6 7 7 8 8 8 7 6 5 5 4
5 4 2 2 1 1 1 1 2 4 6 6 4 2 4 7 7 7 8 9 11 11 11 9 8 6 5 5 4 4 5 5 5 6 7 9 8 7 6 6 6 5 5 5
5 4 2 2 2 1 1 3 0 1 2 2 2 1 3 4 4 7 10 11 11 10 11 10 9 8 7 6 5 4 4 4 4 6 7 7 6 6 7 7 6 5 5 5
3 3 3 2 5 3 2 3 1 3 1 3 3 3 2 3 6 7 8 9 9 9 10 10 9 8 7 6 5 5 5 3 4 6 6 6 6 7 8 7 6 7 6 5
4 4 3 1 3 1 3 2 4 5 4 3 1 1 1 1 0 3 6 8 9 10 10 10 10 9 8 6 5 4 3 2 3 5 5 5 6 7 7 7 8 8 6 6
4 6 4 3 1 3 2 1 1 2 1 3 2 3 3 3 2 5 7 7 7 8 8 8 8 8 8 7 6 4 3 2 3 5 5 6 6 7 7 8 9 7 6 6
5 5 5 4 3 4 4 4 3 4 0 3 1 2 3 3 4 5 8 8 8 9 8 9 9 8 9 8 5 4 4 4 5 7 7 6 6 7 8 9 8 6 6 8
3 4 4 4 3 5 4 5 2 3 5 2 1 1 1 1 3 5 7 7 7 8 9 9 9 9 9 9 5 5 5 6 8 7 6 5 5 7 7 7 6 6 7 6
4 4 4 4 3 6 2 2 3 4 1 1 0 1 0 1 3 4 6 7 9 9 10 10 9 9 9 8 7 7 8 9 7 6 6 6 6 6 5 5 5 6 7 7
4 5 5 6 5 2 1 1 1 2 1 1 1 1 1 1 3 4 5 7 8 9 9 9 9 10 10 8 7 9 10 9 7 6 6 6 6 5 5 5 5 4 6 7
3 2 3 2 3 2 1 0 1 1 1 1 1 1 0 1 2 4 5 6 7 8 9 9 9 11 12 10 9 9 10 9 7 7 7 6 5 5 5 5 5 5 7 8
5 3 2 3 4 2 2 1 1 1 1 1 0 0 0 0 2 3 4 6 6 7 8 8 9 10 12 12 11 11 10 8 8 8 7 6 6 6 6 6 6 7 8 9
5 7 7 7 7 6 5 4 2 1 2 2 1 1 1 1 2 3 4 5 6 7 8 8 9 10 11 12 12 12 10 8 8 8 7 6 6 6 5 5 6 8 8 12
Wind_Direction
82 89 148 184 179 161 146 152 234 262 241 224 263 278 285 274 240 236 230 224 226 228 227 203 185 172 161 161 163 166 160 157 144 127 126 122 178 302 318 314 329 343 345 351
69 128 193 154 133 117 109 97 297 309 324 234 290 289 288 268 243 233 228 227 226 225 215 198 181 172 174 175 176 175 173 170 171 162 152 155 157 223 265 298 326 334 338 338
141 198 161 140 137 127 104 181 213 276 347 15 341 331 330 318 309 284 243 226 220 214 211 200 187 184 180 184 185 185 182 178 176 158 122 88 61 30 6 335 321 321 327 333
110 159 148 139 154 150 264 232 192 273 40 344 32 335 313 323 330 326 301 248 230 222 210 198 189 189 194 193 184 179 178 177 174 162 160 153 156 191 240 260 285 306 325 332
164 161 152 166 209 170 213 51 90 75 107 26 21 67 305 341 344 323 309 281 255 230 212 205 199 197 194 183 178 176 173 178 176 175 172 161 168 197 237 279 300 313 321 324
182 177 177 195 169 155 139 64 56 50 68 39 343 67 309 313 301 312 318 308 279 247 222 211 195 182 182 176 174 171 174 185 182 181 176 177 182 188 201 264 290 301 309 311
26 357 246 152 97 65 84 81 36 20 25 304 315 83 263 285 294 288 295 303 300 274 219 203 191 189 188 184 181 178 181 191 190 188 192 194 194 191 202 221 238 260 286 290
84 314 268 189 169 154 137 128 139 146 203 301 348 313 271 298 312 317 318 322 338 313 255 222 208 200 195 191 185 183 189 197 195 198 205 203 198 196 212 220 224 235 244 259
143 279 312 262 153 127 121 112 147 125 115 29 330 322 321 344 353 355 356 356 341 320 293 257 223 204 198 195 194 192 193 201 202 203 204 206 207 208 218 228 227 238 248 258
140 112 343 348 70 42 110 135 95 93 111 26 333 334 309 326 332 340 343 337 327 327 318 288 244 216 207 203 198 190 194 203 207 205 207 209 210 214 218 222 231 240 250 256
103 113 353 28 66 138 91 81 89 94 131 136 350 294 265 287 310 322 323 326 327 324 318 305 284 248 217 200 192 197 202 206 209 208 212 214 215 213 213 222 234 237 243 243
91 108 51 303 307 337 126 140 139 130 165 142 152 265 304 308 314 326 329 335 342 341 338 338 338 342 285 220 212 211 211 213 218 211 210 217 220 211 214 228 236 233 238 242
113 96 63 360 351 10 58 89 104 116 112 140 156 257 341 1 356 354 346 344 349 357 2 5 8 359 323 271 240 227 221 223 223 209 208 216 219 214 220 228 232 227 229 236
102 94 143 181 217 261 339 92 123 117 133 184 212 249 328 349 353 351 350 348 357 5 8 6 357 346 331 306 272 248 240 229 222 212 211 218 221 219 222 224 222 221 220 223
76 101 142 217 252 214 241 270 167 168 180 183 223 214 315 329 337 342 350 1 12 9 4 358 348 338 334 329 307 278 260 239 221 214 219 227 226 220 219 220 221 219 217 223
48 102 73 3 19 17 7 338 357 149 147 159 116 350 321 331 3 11 10 13 10 1 354 348 344 341 336 324 312 297 276 252 217 218 229 231 223 218 217 218 217 215 218 221
42 101 95 294 318 20 343 321 121 103 77 136 163 237 309 7 26 17 9 11 3 352 346 343 338 329 319 313 301 291 278 258 223 228 235 230 223 223 223 219 212 213 217 214
128 105 112 78 37 218 247 7 112 107 67 54 67 342 319 286 90 34 20 7 357 350 345 340 336 331 322 317 316 303 303 276 246 245 248 240 229 230 226 216 218 220 213 209
139 128 110 109 127 292 303 359 128 126 60 16 33 360 343 326 11 7 5 359 346 338 332 328 326 324 326 327 323 323 314 297 279 267 262 252 237 233 227 223 225 222 212 214
67 86 108 120 155 232 253 298 299 117 257 318 10 347 349 37 15 322 334 342 345 344 340 337 335 340 343 334 330 330 312 302 284 273 265 257 244 235 232 230 226 219 213 218
68 68 115 151 204 255 274 302 74 138 250 268 239 299 14 120 228 280 320 338 342 343 342 343 344 346 339 334 332 318 308 290 282 280 271 260 248 244 240 234 228 215 209 207
170 150 166 147 185 245 308 69 143 217 236 193 231 302 350 271 303 328 342 343 345 347 346 346 345 338 334 338 335 317 302 294 297 290 273 262 252 250 254 239 232 214 201 202
195 188 186 187 205 231 291 205 244 175 176 220 211 278 289 320 331 336 341 342 342 340 338 338 337 333 334 334 333 317 305 305 304 293 280 272 262 248 241 232 232 224 206 209
268 152 144 228 250 254 307 5 7 105 177 225 215 234 305 321 328 339 338 336 336 334 332 333 336 336 332 330 325 313 311 309 301 292 286 281 267 261 251 239 227 224 217 215
235 172 161 236 257 296 282 249 257 13 40 49 19 283 199 55 331 325 325 323 324 325 324 327 329 326 322 323 322 319 317 313 302 294 289 285 272 260 252 245 237 234 232 224
209 182 179 217 214 194 225 231 214 198 238 238 215 341 337 321 293 309 308 306 311 316 317 320 320 320 318 321 321 320 316 311 302 298 291 283 277 272 261 257 273 262 252 247
Height
1492 1498 1503 1501 1500 1501 1504 1508 1511 1506 1501 1503 1504 1501 1494 1491 1492 1492 1492 1493 1494 1496 1499 1501 1504 1506 1509 1511 1512 1514 1514 1515 1515 1515 1515 1515 1515 1514 1513 1512 1511 1510 1509 1508
1498 1501 1497 1496 1499 1501 1504 1509 1510 1505 1501 1503 1504 1500 1493 1490 1489 1489 1490 1491 1492 1494 1496 1499 1501 1504 1506 1509 1510 1512 1513 1513 1514 1514 1514 1514 1514 1513 1513 1512 1511 1510 1509 1507
1498 1498 1495 1497 1501 1504 1505 1508 1508 1508 1504 1503 1505 1504 1496 1490 1489 1488 1488 1489 1491 1492 1494 1496 1499 1501 1504 1506 1508 1510 1511 1512 1513 1513 1513 1513 1513 1512 1512 1511 1510 1509 1508 1507
1496 1495 1496 1499 1501 1503 1509 1502 1503 1506 1511 1517 1512 1522 1504 1497 1492 1489 1488 1488 1489 1491 1492 1494 1496 1499 1501 1504 1507 1509 1510 1511 1512 1512 1512 1512 1512 1512 1511 1511 1510 1509 1508 1507
1497 1496 1497 1500 1500 1500 1503 1500 1503 1506 1512 1519 1517 1522 1514 1501 1497 1492 1489 1488 1488 1489 1491 1492 1494 1497 1500 1503 1505 1507 1508 1509 1510 1511 1511 1511 1511 1511 1510 1510 1509 1508 1508 1507
1495 1494 1495 1496 1496 1498 1500 1504 1508 1514 1520 1528 1522 1524 1521 1508 1501 1495 1490 1488 1488 1488 1489 1491 1493 1496 1498 1501 1503 1505 1507 1508 1509 1509 1510 1510 1510 1510 1509 1509 1509 1508 1507 1506
1499 1496 1494 1494 1498 1500 1503 1515 1530 1532 1537 1534 1522 1523 1520 1503 1498 1495 1492 1489 1488 1488 1489 1490 1491 1493 1496 1498 1501 1503 1505 1506 1507 1508 1508 1508 1508 1509 1509 1508 1508 1507 1507 1506
1508 1509 1496 1494 1496 1501 1505 1512 1530 1538 1540 1536 1525 1524 1513 1500 1496 1494 1491 1490 1488 1488 1488 1489 1490 1492 1494 1497 1499 1501 1503 1504 1505 1506 1507 1507 1507 1507 1507 1507 1507 1506 1506 1505
1508 1507 1494 1492 1492 1497 1506 1513 1514 1528 1533 1538 1531 1521 1508 1497 1496 1494 1492 1490 1489 1489 1489 1489 1490 1491 1493 1495 1497 1499 1501 1502 1504 1504 1505 1505 1506 1506 1506 1506 1506 1506 1505 1505
1499 1506 1498 1494 1494 1497 1501 1510 1520 1529 1540 1544 1535 1530 1525 1508 1503 1498 1495 1493 1491 1489 1489 1489 1489 1491 1492 1494 1496 1498 1499 1501 1502 1503 1503 1504 1504 1505 1505 1505 1505 1504 1504 1504
1496 1506 1505 1500 1501 1503 1507 1513 1522 1531 1532 1544 1543 1537 1514 1510 1506 1502 1498 1496 1493 1490 1489 1489 1489 1490 1491 1493 1494 1496 1497 1498 1500 1500 1501 1502 1502 1503 1503 1503 1503 1503 1503 1502
1499 1509 1514 1507 1500 1499 1501 1508 1518 1527 1533 1537 1542 1537 1509 1508 1506 1503 1499 1496 1494 1492 1490 1490 1489 1489 1490 1491 1492 1493 1495 1496 1497 1498 1499 1499 1500 1500 1500 1501 1501 1501 1501 1501
1499 1509 1521 1519 1515 1506 1505 1508 1513 1521 1532 1539 1541 1531 1509 1507 1505 1503 1500 1497 1495 1493 1491 1490 1489 1489 1489 1489 1490 1491 1492 1493 1495 1495 1496 1496 1497 1497 1498 1498 1499 1499 1498 1498
1497 1509 1518 1524 1520 1511 1509 1509 1513 1518 1530 1534 1531 1523 1514 1510 1508 1505 1502 1499 1497 1494 1492 1491 1490 1489 1488 1488 1488 1489 1489 1490 1491 1492 1492 1493 1493 1494 1495 1495 1496 1496 1496 1496
1499 1509 1508 1509 1508 1508 1509 1509 1511 1514 1519 1525 1521 1521 1517 1514 1511 1508 1504 1501 1497 1495 1493 1492 1491 1489 1488 1487 1486 1486 1486 1487 1488 1488 1489 1489 1490 1491 1491 1492 1492 1493 1493 1493
1504 1509 1509 1511 1509 1509 1510 1510 1510 1512 1515 1517 1519 1520 1515 1513 1511 1507 1505 1502 1499 1497 1495 1493 1491 1489 1487 1486 1484 1484 1483 1484 1484 1485 1485 1486 1486 1487 1487 1488 1489 1489 1489 1489
1510 1511 1516 1520 1515 1510 1517 1513 1512 1514 1514 1515 1519 1518 1514 1513 1510 1509 1506 1504 1502 1500 1497 1495 1492 1489 1487 1485 1484 1482 1481 1481 1481 1481 1482 1482 1482 1483 1483 1484 1484 1485 1485 1485
1511 1516 1523 1524 1518 1523 1519 1510 1510 1513 1515 1514 1514 1514 1513 1512 1511 1510 1508 1506 1503 1501 1498 1495 1492 1489 1487 1484 1482 1481 1480 1479 1478 1478 1478 1478 1478 1478 1479 1479 1479 1480 1480 1481
1508 1514 1524 1529 1527 1523 1516 1510 1511 1513 1516 1514 1514 1513 1512 1510 1509 1509 1508 1507 1505 1502 1499 1496 1492 1489 1486 1483 1480 1479 1477 1476 1475 1474 1474 1474 1474 1474 1474 1474 1474 1475 1475 1475
1511 1513 1523 1529 1524 1526 1518 1509 1507 1511 1518 1513 1512 1512 1511 1510 1513 1512 1508 1506 1504 1501 1498 1495 1491 1488 1484 1481 1478 1477 1475 1473 1472 1471 1470 1470 1470 1469 1469 1469 1469 1470 1470 1470
1517 1520 1524 1527 1525 1521 1512 1508 1508 1520 1519 1512 1511 1511 1511 1511 1512 1511 1508 1505 1503 1500 1497 1494 1490 1487 1483 1480 1477 1475 1473 1471 1469 1468 1467 1466 1465 1464 1464 1464 1464 1464 1464 1464
1516 1520 1524 1527 1527 1523 1510 1508 1513 1514 1510 1510 1510 1510 1510 1510 1509 1508 1506 1503 1501 1498 1495 1492 1489 1485 1482 1479 1476 1472 1470 1468 1466 1464 1462 1461 1460 1459 1459 1458 1458 1458 1458 1458
1514 1514 1515 1517 1517 1511 1508 1508 1509 1509 1509 1509 1509 1509 1509 1508 1507 1505 1503 1501 1499 1497 1494 1490 1487 1483 1480 1477 1474 1470 1467 1464 1461 1459 1457 1455 1454 1454 1453 1452 1452 1451 1451 1451
1510 1509 1511 1512 1509 1507 1507 1507 1508 1508 1508 1508 1508 1508 1507 1506 1505 1503 1501 1499 1497 1494 1491 1488 1484 1480 1477 1474 1471 1467 1463 1460 1457 1454 1452 1450 1448 1447 1446 1446 1446 1445 1445 1445
1507 1507 1509 1510 1507 1506 1506 1506 1506 1506 1506 1506 1506 1505 1505 1504 1502 1501 1499 1497 1494 1491 1488 1485 1482 1478 1474 1470 1467 1463 1459 1456 1452 1449 1447 1445 1443 1441 1440 1439 1439 1438 1438 1439
1502 1503 1506 1505 1501 1502 1503 1503 1504 1504 1504 1504 1503 1503 1502 1501 1500 1498 1496 1494 1491 1488 1485 1481 1478 1474 1470 1466 1463 1459 1455 1451 1448 1444 1442 1439 1437 1435 1434 1432 1431 1431 1432 1432